Texico, NM

9:38 PM MDT on September 26, 2016 (GMT -0600)
Clovis Municipal

Weather History for KCVN - July, 2013

Change the Weather History Date:

Friday, July 5, 2013

  Actual Average Record
Temperature  
Mean Temperature 74 °F -  
Max Temperature 89 °F 90 °F 105 °F (1917)
Min Temperature 60 °F 63 °F 54 °F (1972)
Cooling Degree Days 10    
Growing Degree Days 24 (Base 50)    
Moisture  
Dew Point 54 °F    
Average Humidity 50    
Maximum Humidity 77    
Minimum Humidity 27    
Precipitation  
Precipitation 0.00 in - - ()
Sea Level Pressure  
Sea Level Pressure 30.01 in    
Wind  
Wind Speed 11 mph (South)    
Max Wind Speed 24 mph    
Max Gust Speed 30 mph    
Visibility 10 miles    
Events      
Averages and records for this station are not official NWS values.
T = Trace of Precipitation, MM = Missing Value Source: NWS Daily Summary

Daily Weather History Graph

Daily Weather History Graph

Search for Another Location

Airport or City:

Trip Planner

Search our weather history database for the weather conditions in past years. The results will help you decide how hot, cold, wet, or windy it might be!

Date:

Astronomy

Jul. 05, 2013 Rise Set
Actual Time 5:45 AM MDT 8:08 PM MDT
Civil Twilight 5:16 AM MDT 8:37 PM MDT
Nautical Twilight 4:40 AM MDT 9:13 PM MDT
Astronomical Twilight 4:01 AM MDT 9:52 PM MDT
Moon 3:44 AM MDT (7/5) 6:07 PM MDT (7/5)
Length of Visible Light 15h 20m
Length of Day
14h 22m
Waning Crescent, 6% of the Moon is Illuminated
Jul 5
Waning Crescent
Jul 8
New
Jul 15
First Quarter
Jul 22
Full
Jul 29
Last Quarter

Hourly Weather History & Observations

Time (MDT) Temp. Heat Index Dew Point Humidity Pressure Visibility Wind Dir Wind Speed Gust Speed Precip Events Conditions
12:15 AM 64.4 °F - 55.4 °F 73% 30.06 in 10.0 mi SSE 5.8 mph - N/A   Clear
12:35 AM 64.4 °F - 53.6 °F 68% 30.05 in 10.0 mi South 6.9 mph - N/A   Clear
12:55 AM 64.4 °F - 55.4 °F 73% 30.05 in 10.0 mi South 6.9 mph - N/A   Clear
1:15 AM 64.4 °F - 55.4 °F 73% 30.05 in 10.0 mi South 4.6 mph - N/A   Clear
1:35 AM 64.4 °F - 53.6 °F 68% 30.05 in 10.0 mi South 6.9 mph - N/A   Clear
1:55 AM 64.4 °F - 55.4 °F 73% 30.05 in 10.0 mi SSW 5.8 mph - N/A   Clear
2:15 AM 62.6 °F - 53.6 °F 72% 30.05 in 10.0 mi SSW 6.9 mph - N/A   Clear
2:35 AM 62.6 °F - 55.4 °F 77% 30.05 in 10.0 mi SSW 8.1 mph - N/A   Clear
2:55 AM 62.6 °F - 53.6 °F 72% 30.05 in 10.0 mi SSW 6.9 mph - N/A   Clear
3:15 AM 62.6 °F - 55.4 °F 77% 30.05 in 10.0 mi SW 6.9 mph - N/A   Clear
3:35 AM 62.6 °F - 53.6 °F 72% 30.05 in 10.0 mi SW 8.1 mph - N/A   Clear
3:55 AM 60.8 °F - 53.6 °F 77% 30.05 in 10.0 mi SSW 8.1 mph - N/A   Clear
4:15 AM 60.8 °F - 53.6 °F 77% 30.05 in 10.0 mi South 8.1 mph - N/A   Clear
4:35 AM 60.8 °F - 53.6 °F 77% 30.04 in 10.0 mi South 6.9 mph - N/A   Clear
4:55 AM 60.8 °F - 51.8 °F 72% 30.05 in 10.0 mi South 6.9 mph - N/A   Clear
5:15 AM 60.8 °F - 53.6 °F 77% 30.05 in 10.0 mi SW 5.8 mph - N/A   Clear
5:35 AM 60.8 °F - 53.6 °F 77% 30.05 in 10.0 mi SSW 6.9 mph - N/A   Clear
5:55 AM 60.8 °F - 53.6 °F 77% 30.05 in 10.0 mi SW 6.9 mph - N/A   Clear
6:15 AM 62.6 °F - 53.6 °F 72% 30.05 in 10.0 mi SSW 8.1 mph - N/A   Clear
6:35 AM 62.6 °F - 53.6 °F 72% 30.05 in 10.0 mi SW 8.1 mph - N/A   Clear
6:55 AM 64.4 °F - 53.6 °F 68% 30.06 in 10.0 mi SW 8.1 mph - N/A   Clear
7:15 AM 64.4 °F - 53.6 °F 68% 30.06 in 10.0 mi SSW 9.2 mph - N/A   Clear
7:35 AM 66.2 °F - 53.6 °F 64% 30.07 in 10.0 mi SW 11.5 mph - N/A   Clear
7:55 AM 69.8 °F - 53.6 °F 56% 30.07 in 10.0 mi SSW 15.0 mph - N/A   Clear
8:15 AM 69.8 °F - 53.6 °F 56% 30.07 in 10.0 mi SSW 15.0 mph 19.6 mph N/A   Clear
8:35 AM 69.8 °F - 53.6 °F 56% 30.07 in 10.0 mi SSW 18.4 mph 23.0 mph N/A   Clear
8:55 AM 71.6 °F - 53.6 °F 53% 30.07 in 10.0 mi SSW 20.7 mph - N/A   Clear
9:15 AM 73.4 °F - 53.6 °F 50% 30.07 in 10.0 mi South 16.1 mph 24.2 mph N/A   Clear
9:35 AM 73.4 °F - 55.4 °F 53% 30.07 in 10.0 mi SSW 17.3 mph - N/A   Partly Cloudy
9:55 AM 73.4 °F - 55.4 °F 53% 30.06 in 10.0 mi South 18.4 mph 21.9 mph N/A   Clear
10:15 AM 75.2 °F - 55.4 °F 50% 30.05 in 10.0 mi South 16.1 mph - N/A   Clear
10:35 AM 77.0 °F - 55.4 °F 47% 30.06 in 10.0 mi South 16.1 mph - N/A   Clear
10:55 AM 78.8 °F - 55.4 °F 44% 30.05 in 10.0 mi South 18.4 mph - N/A   Clear
11:15 AM 80.6 °F 80.8 °F 57.2 °F 45% 30.05 in 10.0 mi South 18.4 mph - N/A   Clear
11:35 AM 82.4 °F 82.0 °F 57.2 °F 42% 30.05 in 10.0 mi South 19.6 mph 25.3 mph N/A   Clear
11:55 AM 82.4 °F 81.7 °F 55.4 °F 39% 30.03 in 10.0 mi South 19.6 mph 26.5 mph N/A   Clear
12:15 PM 84.2 °F 83.0 °F 55.4 °F 37% 30.03 in 10.0 mi South 21.9 mph - N/A   Clear
12:35 PM 86.0 °F 84.9 °F 57.2 °F 37% 30.02 in 10.0 mi South 20.7 mph 24.2 mph N/A   Clear
12:55 PM 86.0 °F 84.5 °F 55.4 °F 35% 30.01 in 10.0 mi South 19.6 mph 28.8 mph N/A   Clear
1:15 PM 87.8 °F 86.1 °F 55.4 °F 33% 30.01 in 10.0 mi South 21.9 mph 29.9 mph N/A   Clear
1:35 PM 87.8 °F 86.1 °F 55.4 °F 33% 29.99 in 10.0 mi South 24.2 mph 28.8 mph N/A   Clear
1:55 PM 89.6 °F 87.7 °F 55.4 °F 31% 29.99 in 10.0 mi South 23.0 mph 28.8 mph N/A   Clear
2:15 PM 89.6 °F 87.7 °F 55.4 °F 31% 29.98 in 10.0 mi South 19.6 mph 26.5 mph N/A   Clear
2:35 PM 89.6 °F 87.7 °F 55.4 °F 31% 29.98 in 10.0 mi South 20.7 mph 27.6 mph N/A   Clear
2:55 PM 89.6 °F 87.3 °F 53.6 °F 29% 29.97 in 10.0 mi South 19.6 mph 27.6 mph N/A   Clear
3:15 PM 89.6 °F 87.7 °F 55.4 °F 31% 29.96 in 10.0 mi South 23.0 mph 27.6 mph N/A   Clear
3:35 PM 89.6 °F 87.3 °F 53.6 °F 29% 29.95 in 10.0 mi South 20.7 mph 26.5 mph N/A   Clear
3:55 PM 89.6 °F 87.3 °F 53.6 °F 29% 29.94 in 10.0 mi South 23.0 mph 27.6 mph N/A   Clear
4:15 PM 89.6 °F 87.3 °F 53.6 °F 29% 29.94 in 10.0 mi South 19.6 mph 26.5 mph N/A   Clear
4:35 PM 89.6 °F 87.3 °F 53.6 °F 29% 29.93 in 10.0 mi South 19.6 mph - N/A   Clear
4:55 PM 89.6 °F 87.3 °F 53.6 °F 29% 29.94 in 10.0 mi South 19.6 mph 26.5 mph N/A   Clear
5:15 PM 89.6 °F - 51.8 °F 27% 29.93 in 10.0 mi South 18.4 mph 24.2 mph N/A   Clear
5:35 PM 89.6 °F - 51.8 °F 27% 29.92 in 10.0 mi South 19.6 mph 24.2 mph N/A   Clear
5:55 PM 89.6 °F - 51.8 °F 27% 29.92 in 10.0 mi South 20.7 mph 24.2 mph N/A   Clear
6:15 PM 87.8 °F - 51.8 °F 29% 29.91 in 10.0 mi South 17.3 mph - N/A   Clear
6:35 PM 86.0 °F - 51.8 °F 31% 29.91 in 10.0 mi South 15.0 mph - N/A   Clear
6:55 PM 84.2 °F 82.8 °F 53.6 °F 35% 29.92 in 10.0 mi South 13.8 mph - N/A   Clear
7:15 PM 84.2 °F - 51.8 °F 33% 29.92 in 10.0 mi South 11.5 mph - N/A   Clear
7:35 PM 82.4 °F 81.4 °F 53.6 °F 37% 29.94 in 10.0 mi South 11.5 mph - N/A   Clear
7:55 PM 82.4 °F 81.4 °F 53.6 °F 37% 29.94 in 10.0 mi South 11.5 mph - N/A   Clear
8:15 PM 80.6 °F - 51.8 °F 37% 29.95 in 10.0 mi South 12.7 mph - N/A   Clear
8:35 PM 80.6 °F - 51.8 °F 37% 29.95 in 10.0 mi South 12.7 mph - N/A   Clear
8:55 PM 78.8 °F - 51.8 °F 39% 29.95 in 10.0 mi SSE 12.7 mph - N/A   Clear
9:15 PM 78.8 °F - 51.8 °F 39% 29.96 in 10.0 mi South 13.8 mph - N/A   Clear
9:35 PM 77.0 °F - 51.8 °F 41% 29.96 in 10.0 mi SSE 12.7 mph - N/A   Clear
9:55 PM 77.0 °F - 50.0 °F 39% 29.98 in 10.0 mi South 12.7 mph - N/A   Clear
10:15 PM 75.2 °F - 51.8 °F 44% 29.99 in 10.0 mi SSE 10.4 mph - N/A   Clear
10:35 PM 75.2 °F - 51.8 °F 44% 30.00 in 10.0 mi SSE 10.4 mph - N/A   Mostly Cloudy
10:55 PM 75.2 °F - 51.8 °F 44% 30.01 in 10.0 mi South 10.4 mph - N/A   Mostly Cloudy
11:15 PM 73.4 °F - 51.8 °F 47% 30.01 in 10.0 mi South 12.7 mph - N/A   Clear
11:35 PM 73.4 °F - 51.8 °F 47% 30.01 in 10.0 mi South 11.5 mph - N/A   Clear
11:55 PM 73.4 °F - 51.8 °F 47% 30.02 in 10.0 mi SSW 12.7 mph - N/A   Clear